ONEWEB-0148 (48059 NORAD) Tracking and Keplerian Element Data

This shows tracking and keplerian element data for the satellite.

Feedback or suggestion? Click here.




ElementValue
Catalog48059
NameONEWEB-0148
Epoch Orbit193
Epoch Day173.91668981
Epoch Year2021
RAAN322.3226
Inclination87.7964
Eccentricity0.00081
Argument of Perigee328.9103
Mean Anonmoly261.387
Mean Motion13.80590892
Decay Rate1.5E-07
L11 48059U 21025T 21173.91668981 .00000015 00000-0 00000-0 0 9994
L22 48059 87.7964 322.3226 0008100 328.9103 261.3870 13.80590892 1939

Live tracking and technical data element details for ONEWEB-0148 (NORAD 48059). ONEWEB-0148 can be tracked NOW for your location showing map with azimuth and elevation plus other details from your city location.

Track the satellite on the map from your city or location and see movement details for azimuth, elevation, latitude, longitude, range, height, and movement on the map or in text.







IsCatalogInMostPopularTable: catalog: 48059, numindb: 41
Update: records affected: 1



GetName: 48059 ONEWEB-0148

Hit Count: updated at: Thu, 24 Jun 2021 03:33:01 GMT